Weather History for KTVC - November, 2012

Change the Weather History Date:

Sunday, November 18, 2012

  Actual Average Record
Temperature  
Mean Temperature 44 °F 36 °F  
Max Temperature 58 °F 43 °F 69 °F (1958)
Min Temperature 29 °F 30 °F 11 °F (1924)
Degree Days  
Heating Degree Days 21 29  
Month to date heating degree days 440 457  
Since 1 July heating degree days 1161 1244  
Moisture  
Dew Point 29 °F    
Average Humidity 63    
Maximum Humidity 92    
Minimum Humidity 33    
Precipitation  
Precipitation 0.00 in 0.09 in 1.55 in (1931)
Month to date precipitation 0.51 1.66  
Year to date precipitation 27.61 29.52  
Sea Level Pressure  
Sea Level Pressure 30.44 in    
Wind  
Wind Speed 3 mph (SSE)    
Max Wind Speed 12 mph    
Max Gust Speed 20 mph    
Visibility 8 miles    
Events      
T = Trace of Precipitation, MM = Missing Value Source: NWS Daily Summary

Daily Weather History Graph

Daily Weather History Graph

Search for Another Location

Airport or City:

Trip Planner

Search our weather history database for the weather conditions in past years. The results will help you decide how hot, cold, wet, or windy it might be!

Date:

Astronomy

Nov. 18, 2012 Rise Set
Actual Time 7:43 AM EST 5:10 PM EST
Civil Twilight 7:12 AM EST 5:42 PM EST
Nautical Twilight 6:36 AM EST 6:18 PM EST
Astronomical Twilight 6:01 AM EST 6:53 PM EST
Moon 12:07 PM EST (11/18) 10:33 PM EST (11/18)
Length of Visible Light 10h 30m
Length of Day
9h 26m
Waxing Crescent, 30% of the Moon is Illuminated
Nov 18
Waxing Crescent
Nov 20
First Quarter
Nov 28
Full
Dec 6
Last Quarter
Dec 13
New

Hourly Weather History & Observations

Time (EST) Temp. Windchill Dew Point Humidity Pressure Visibility Wind Dir Wind Speed Gust Speed Precip Events Conditions
12:53 AM 39.0 °F - 30.0 °F 70% 30.50 in 8.0 mi Calm Calm - N/A   Clear
1:53 AM 35.1 °F - 28.9 °F 78% 30.50 in 7.0 mi Calm Calm - N/A   Clear
2:53 AM 34.0 °F - 28.0 °F 79% 30.50 in 7.0 mi Calm Calm - N/A   Clear
3:53 AM 32.0 °F - 28.0 °F 85% 30.48 in 6.0 mi Calm Calm - N/A   Clear
4:53 AM 30.9 °F - 27.0 °F 85% 30.48 in 6.0 mi Calm Calm - N/A   Clear
5:53 AM 30.9 °F - 28.0 °F 89% 30.49 in 6.0 mi Calm Calm - N/A   Clear
6:53 AM 30.0 °F - 27.0 °F 88% 30.48 in 5.0 mi Calm Calm - N/A   Scattered Clouds
7:53 AM 30.9 °F 27.5 °F 28.0 °F 89% 30.48 in 6.0 mi SSE 3.5 mph - N/A   Mostly Cloudy
8:53 AM 37.9 °F - 30.0 °F 73% 30.48 in 7.0 mi Calm Calm - N/A   Mostly Cloudy
9:53 AM 43.0 °F 41.3 °F 30.9 °F 62% 30.48 in 9.0 mi SSE 3.5 mph - N/A   Scattered Clouds
10:53 AM 46.9 °F - 30.9 °F 54% 30.48 in 10.0 mi Variable 5.8 mph - N/A   Scattered Clouds
11:53 AM 53.1 °F - 30.9 °F 43% 30.45 in 10.0 mi Variable 5.8 mph - N/A   Scattered Clouds
12:53 PM 55.9 °F - 30.0 °F 37% 30.42 in 10.0 mi SSE 8.1 mph - N/A   Scattered Clouds
1:53 PM 57.0 °F - 28.9 °F 34% 30.41 in 10.0 mi Variable 4.6 mph - N/A   Scattered Clouds
2:53 PM 57.0 °F - 28.0 °F 33% 30.39 in 10.0 mi South 8.1 mph - N/A   Partly Cloudy
3:53 PM 55.9 °F - 30.0 °F 37% 30.39 in 10.0 mi SSE 8.1 mph - N/A   Partly Cloudy
4:53 PM 53.1 °F - 28.0 °F 38% 30.39 in 10.0 mi Variable 4.6 mph - N/A   Partly Cloudy
5:53 PM 48.9 °F - 28.0 °F 44% 30.40 in 10.0 mi SE 3.5 mph - N/A   Partly Cloudy
6:53 PM 46.9 °F - 28.0 °F 48% 30.41 in 10.0 mi Calm Calm - N/A   Partly Cloudy
7:53 PM 46.0 °F 43.1 °F 28.9 °F 51% 30.40 in 10.0 mi Variable 5.8 mph - N/A   Clear
8:53 PM 44.1 °F 42.5 °F 30.9 °F 60% 30.39 in 10.0 mi South 3.5 mph - N/A   Clear
9:53 PM 43.0 °F 41.3 °F 33.1 °F 68% 30.39 in 9.0 mi South 3.5 mph - N/A   Clear
10:53 PM 42.1 °F 40.2 °F 33.1 °F 70% 30.38 in 8.0 mi Variable 3.5 mph - N/A   Clear